Regional Weather Roundup
Issued by NWS

Home | Current Version | Previous Version | Text Only | Print | Product List | Glossary On
Versions: 1 2 3 4 5 6 7 8 9 10 11 12 13 14 15 16 17 18 19 20 21 22 23 24 25 26 27 28 29 30 31 32 33 34 35 36 37 38 39 40 41 42 43 44 45 46 47 48 49 50
000
ASUS43 KMPX 072101
RWRMN
WEATHER ROUNDUP FOR MINNESOTA
NATIONAL WEATHER SERVICE TWIN CITIES/CHANHASSEN MN
300 PM CST SUN FEB 07 2016


NOTE: "FAIR" INDICATES FEW OR NO CLOUDS BELOW 12,000 FEET WITH NO
SIGNIFICANT WEATHER AND/OR OBSTRUCTIONS TO VISIBILITY. N/A MEANS
CURRENT SKY AND/OR WEATHER CONDITIONS ARE NOT AVAILABLE.

MNZ060>063-068>070-072200-
   Twin Cities Metro

CITY           SKY/WX    TMP DP  RH WIND       PRES   REMARKS
TWIN CITIES    CLOUDY    38  28  67 W15       29.61S
ST PAUL        CLOUDY    39  28  64 W13G22    29.62S
CRYSTAL        CLOUDY    39  29  67 W15G25    29.60R
BLAINE         CLOUDY    39  30  70 W16       29.59S
LAKEVILLE      CLOUDY    36  30  80 W17G24    29.63R
EDEN PRAIRIE   CLOUDY    39  28  64 W17G23    29.61S
SOUTH ST PAUL  CLOUDY    39  28  63 W12G23    29.61S
LAKE ELMO      CLOUDY    37  30  75 W16G22    29.61S
$$
MNZ001>005-007-008-013>017-022>024-027-028-072200-
   Northwest Minnesota

CITY           SKY/WX    TMP DP  RH WIND       PRES   REMARKS
BEMIDJI        LGT SNOW  18  15  86 NW22G33   29.62R WCI   1
HALLOCK        SNOW      12  10  92 NW30G39   29.81R VSB 1/4 WCI  -9
ROSEAU         LGT SNOW  16  10  79 NW22      29.69R VSB 1   WCI  -2
WARROAD        LGT SNOW  16  10  79 NW26G32   29.66R WCI  -3
CROOKSTON      HVY SNOW  16  12  86 N30G41    29.81R VSB<1/4 WCI  -4
DETROIT LAKES  SNOW      19  18  93 NW29G35   29.73R VSB 1/2 WCI   1
MOORHEAD       RAIN      25  18  74 N33G39    29.79R WCI   7
PARK RAPIDS    LGT SNOW  21  16  81 NW28      29.62R VSB 1   WCI   3
MAHNOMEN       LGT SNOW  17  14  88 NW23      29.72R VSB 3/4 WCI  -1
$$
MNZ006-009>011-018-025>026-072200-
   North Central Minnesota

CITY           SKY/WX    TMP DP  RH WIND       PRES   REMARKS
BAUDETTE       LGT SNOW  20  14  77 NW22G35   29.59R WCI   3
FLAG ISLAND    SNOW      18  14  86 NW26G33   29.62R VSB 1/2 WCI  -1
INTL FALLS     MIX PCPN  28  24  85 W13       29.49R FOG     WCI  17
WASKISH        CLOUDY    23  18  80 NW18G25   29.60R WCI   9
LONGVILLE      LGT SNOW  25  21  86 W12G24    29.58R WCI  14
GRAND RAPIDS   CLOUDY    27  21  80 W18G29    29.52R WCI  13
CRANE LAKE     CLOUDY    30  28  93 W3        29.47R
ORR            FLURRIES  28  25  86 W13G18    29.45R WCI  18
COOK           LGT SNOW  28  27  93 W13G18    29.47R WCI  18
WALKER         LGT SNOW  22  18  86 W21G31    29.58R VSB 1   WCI   6
$$
MNZ012-019>021-037-072200-
   Northeast Minnesota

CITY           SKY/WX    TMP DP  RH WIND       PRES   REMARKS
DULUTH         LGT SNOW  33  31  92 W16       29.44R VSB 3/4 WCI  23
ELY            LGT SNOW  32  32 100 W5        29.42R VSB 1   WCI  27
HIBBING        LGT SNOW  28  25  88 W18       29.47R FOG     WCI  15
EVELETH        MIX PCPN  32  30  93 W17       29.46R WCI  21
DULUTH HARBOR  RAIN      36  34  93 SW13      29.48R
TWO HARBORS    CLOUDY    37  34  87 W8        29.42S
SILVER BAY     LGT RAIN  36  34  93 CALM      29.42R
GRAND MARAIS     N/A     33  31  92 NE8       29.47R WCI  26
G MARAIS ARPRT LGT SNOW  28  27  93 E5        29.43R VSB 3/4 WCI  23
$$
MNZ029>031-032-039>041-046>048-054>057-064-072200-
   West Central Minnesota

CITY           SKY/WX    TMP DP  RH WIND       PRES   REMARKS
FERGUS FALLS   FLURRIES  27  21  80 N28G39    29.76R WCI  11
WHEATON        CLOUDY    32  25  74 NW28G39   29.78R WCI  18
MORRIS         LGT SNOW  30  27  86 NW33G40   29.71R WCI  14
ALEXANDRIA     LGT SNOW  28  22  78 NW28G43   29.67R WCI  13
ELBOW LAKE     CLOUDY    27  22  83 W30G41    29.73R FOG     WCI  10
WADENA         MIX PCPN  23  18  80 NW24G36   29.65R WCI   7
GLENWOOD       FLURRIES  32  27  80 NW25G36   29.66R WCI  19
APPLETON       CLOUDY    34  28  80 NW28G40   29.73R WCI  20
BENSON         FLURRIES  34  28  80 N28G36    29.70R WCI  20
ORTONVILLE     CLOUDY    32  25  74 NW20G31   29.75R WCI  20
MADISON        CLOUDY    36  28  75 NW30      29.75R
WILLMAR        CLOUDY    36  32  87 NW26G35   29.67R
$$
MNZ033>034-036-042>043-049>051-058-059-072200-
   Central Minnesota

CITY           SKY/WX    TMP DP  RH WIND       PRES   REMARKS
ST CLOUD       CLOUDY    37  31  78 W21G30    29.58S
SAUK CENTRE    FAIR      32  25  76 NW31G37   29.63R WCI  17
PAYNESVILLE    CLOUDY    35  31  87 W21G26    29.63R WCI  24
AITKIN         SNOW      32  27  80 NW12G18   29.53R VSB 1/2 WCI  23
PINE RIVER     LGT SNOW  25  21  86 W14G24    29.63R VSB 1   WCI  13
BRAINERD       LGT SNOW  29  23  78 NW18G36   29.58R WCI  16
STAPLES        CLOUDY    25  19  80 NW30G41   29.63R WCI   8
LONG PRAIRIE   CLOUDY    32  27  80 NW31G39   29.62R WCI  17
LITTLE FALLS   FLURRIES  32  23  69 NW12G33   29.61R WCI  23
LITCHFIELD     CLOUDY    36  34  93 W15G22    29.64R
BUFFALO        CLOUDY    37  30  77 W16G24    29.62R
MAPLE LAKE     CLOUDY    38  32  80 W12G21    29.61S
$$
MNZ037-044-045-052-053-072200-
   East Central Minnesota

CITY           SKY/WX    TMP DP  RH WIND       PRES   REMARKS
PRINCETON      DRIZZLE   37  34  87 W12G17    29.58R
MORA           LGT RAIN  32  30  93 W8        29.56R WCI  25
CAMBRIDGE      LGT RAIN  37  28  70 W8        29.56R
RUSH CITY      CLOUDY    35  32  90 W9G18     29.56S WCI  27
MOOSE LAKE     LGT SNOW  34  30  86 W15G28    29.49R WCI  24
HINCKLEY       RAIN      34  34 100 SW9       29.54R WCI  26
CLOQUET        LGT SNOW  32  28  86 W13G21    29.47R WCI  22
MCGREGOR       CLOUDY    32  28  86 NW10G23   29.53R WCI  24
$$
MNZ071>073-080-081-089-090-097-098-072200-
   Southwest Minnesota

CITY           SKY/WX    TMP DP  RH WIND       PRES   REMARKS
MONTEVIDEO     LGT SNOW  34  30  86 N21G38    29.72R WCI  22
GRANITE FALLS  LGT SNOW  35  32  90 W28       29.73R WCI  22
CANBY          FLURRIES  36  32  86 W25G43    29.77R
MARSHALL       LGT SNOW  33  30  88 NW26      29.73R FOG     WCI  20
REDWOOD FALLS  CLOUDY    36  30  79 NW23G31   29.69S
OLIVIA         LGT SNOW  34  32  93 W22G30    29.67R WCI  22
PIPESTONE      CLOUDY    36  21  55 NW26G37   29.76R
WINDOM         LGT RAIN  36  30  80 W22       29.72R
WORTHINGTON    CLOUDY    34  27  75 W22       29.76S WCI  22
JACKSON        LGT SNOW  34  30  86 W21G26    29.73S WCI  22
TRACY          FLURRIES  35  30  82 NW20G35   29.73R WCI  24
SLAYTON        CLOUDY    33  30  89 NW26G36   29.74R WCI  20
$$
MNZ065>067-074>077-082>085-091>093-072200-
   South Central Minnesota

CITY           SKY/WX    TMP DP  RH WIND       PRES   REMARKS
MANKATO        CLOUDY    37  28  70 W20G28    29.68R
NEW ULM        CLOUDY    36  30  80 W20       29.69R
ST JAMES       CLOUDY    36  32  87 W24       29.72S
FAIRMONT       PTSUNNY   37  27  65 W20       29.72R
GLENCOE        CLOUDY    37  32  82 W15G23    29.64S
FARIBAULT      CLOUDY    37  28  70 W14G24    29.66R
OWATONNA       CLOUDY    37  27  65 W18G24    29.66S
WASECA         CLOUDY    36  30  80 W22       29.68S
ALBERT LEA     MOSUNNY   37  28  70 W10G21    29.69R
$$
MNZ078>079-086>088-094>096-072200-
   Southeast Minnesota

CITY           SKY/WX    TMP DP  RH WIND       PRES   REMARKS
ROCHESTER      MOSUNNY   37  27  67 W17G28    29.65S
RED WING       CLOUDY    39  27  60 W9G21     29.62R
STANTON        CLOUDY    38  29  68 W17G26    29.63S
DODGE CENTER   CLOUDY    37  27  65 W17       29.65R
WINONA         CLOUDY    41  27  56 W13G23    29.66R
AUSTIN           N/A    N/A N/A N/A W17       29.68S
PRESTON        PTSUNNY   35  27  74 W16       29.67S WCI  25
$$
ABBREVIATIONS USED IN REMARKS
   TC - TEMPERATURES IN CELSIUS
  WCI - WIND CHILL INDEX
   HX - HEAT INDEX
  VSB - VISIBILITY
$$



USA.gov is the U.S. government's official web portal to all federal, state and local government web resources and services.